Volver al catálogo

STARLINK-31522

ActivoComunicacionesVLEO
NORAD 59204·PAYLOAD·🇺🇸 United States

Lanzado Mar 11, 2024 desde Vandenberg Space Force Base

Loading…

Próximos Pases (próximas 24 horas)

TLE

ActualizadoSource: CelesTrak SupGP

Época: Sep 15, 2026, 03:06 UTC

1 59204C 24046D   26258.12965278  .00078378  00000+0  23152-2 0  2584
2 59204  53.1602 354.7703 0001127  84.3784 244.3221 15.34358698    14

Sigue STARLINK-31522 en tiempo real con AllMySat

Download on the App Store